owner,sensor,date,latitude,longitude,vertical_datum,sea_water_practical_salinity,qcFlag 
SCCF RECON,ioos:station:SCCF:18:1,2014-06-01T00:00:00Z,26.6955,-81.8138,1.73,4.93,1111122 
SCCF RECON,ioos:station:SCCF:18:1,2014-06-01T01:00:00Z,26.6955,-81.8138,1.74,4.6,1111122 
SCCF RECON,ioos:station:SCCF:18:1,2014-06-01T02:00:00Z,26.6955,-81.8138,1.74,4.77,1111122 
SCCF RECON,ioos:station:SCCF:18:1,2014-06-01T03:00:00Z,26.6955,-81.8138,1.69,4.71,1111122 
SCCF RECON,ioos:station:SCCF:18:1,2014-06-01T04:00:00Z,26.6955,-81.8138,1.68,4.7,1111122 
SCCF RECON,ioos:station:SCCF:18:1,2014-06-01T05:00:00Z,26.6955,-81.8138,1.63,4.6,1111122 
SCCF RECON,ioos:station:SCCF:18:1,2014-06-01T06:00:00Z,26.6955,-81.8138,1.57,4.6,1111122 
SCCF RECON,ioos:station:SCCF:18:1,2014-06-01T07:00:00Z,26.6955,-81.8138,1.54,4.66,1111122 
SCCF RECON,ioos:station:SCCF:18:1,2014-06-01T08:00:00Z,26.6955,-81.8138,1.52,4.72,1111122 
SCCF RECON,ioos:station:SCCF:18:1,2014-06-01T09:00:00Z,26.6955,-81.8138,1.48,5.08,1111122 
SCCF RECON,ioos:station:SCCF:18:1,2014-06-01T10:00:00Z,26.6955,-81.8138,1.454,4.91,1111122 
SCCF RECON,ioos:station:SCCF:18:1,2014-06-01T11:00:00Z,26.6955,-81.8138,1.483,5.11,1111122 
SCCF RECON,ioos:station:SCCF:18:1,2014-06-01T12:00:00Z,26.6955,-81.8138,1.48,5.18,1111122 
SCCF RECON,ioos:station:SCCF:18:1,2014-06-01T13:00:00Z,26.6955,-81.8138,1.51,4.98,1111122 
SCCF RECON,ioos:station:SCCF:18:1,2014-06-01T14:00:00Z,26.6955,-81.8138,1.53,4.64,1111122 
SCCF RECON,ioos:station:SCCF:18:1,2014-06-01T15:00:00Z,26.6955,-81.8138,1.54,4.73,1111122 
SCCF RECON,ioos:station:SCCF:18:1,2014-06-01T16:00:00Z,26.6955,-81.8138,1.56,4.71,1111122 
SCCF RECON,ioos:station:SCCF:18:1,2014-06-01T17:00:00Z,26.6955,-81.8138,1.58,4.7,1111122 
SCCF RECON,ioos:station:SCCF:18:1,2014-06-01T18:00:00Z,26.6955,-81.8138,1.59,4.96,1111122 
SCCF RECON,ioos:station:SCCF:18:1,2014-06-01T19:00:00Z,26.6955,-81.8138,1.56,5.03,1111122 
SCCF RECON,ioos:station:SCCF:18:1,2014-06-01T20:00:00Z,26.6955,-81.8138,1.57,5.04,1111122 
SCCF RECON,ioos:station:SCCF:18:1,2014-06-01T21:00:00Z,26.6955,-81.8138,1.6,4.96,1111122 
SCCF RECON,ioos:station:SCCF:18:1,2014-06-01T22:00:00Z,26.6955,-81.8138,1.61,5.47,1111122 
SCCF RECON,ioos:station:SCCF:18:1,2014-06-01T23:00:00Z,26.6955,-81.8138,1.61,5.85,1111122 
SCCF RECON,ioos:station:SCCF:18:1,2014-06-02T00:00:00Z,26.6955,-81.8138,1.64,4.91,1111122 
SCCF RECON,ioos:station:SCCF:18:1,2014-06-02T01:00:00Z,26.6955,-81.8138,1.67,4.88,1111122 
SCCF RECON,ioos:station:SCCF:18:1,2014-06-02T02:00:00Z,26.6955,-81.8138,1.69,4.9,1111122 
SCCF RECON,ioos:station:SCCF:18:1,2014-06-02T03:00:00Z,26.6955,-81.8138,1.68,4.81,1111122 
SCCF RECON,ioos:station:SCCF:18:1,2014-06-02T04:00:00Z,26.6955,-81.8138,1.65,4.77,1111122 
SCCF RECON,ioos:station:SCCF:18:1,2014-06-02T05:00:00Z,26.6955,-81.8138,1.61,4.74,1111122 
SCCF RECON,ioos:station:SCCF:18:1,2014-06-02T06:00:00Z,26.6955,-81.8138,1.57,4.76,1111122 
SCCF RECON,ioos:station:SCCF:18:1,2014-06-02T07:00:00Z,26.6955,-81.8138,1.51,4.69,1111122 
SCCF RECON,ioos:station:SCCF:18:1,2014-06-02T08:00:00Z,26.6955,-81.8138,1.48,4.7,1111122 
SCCF RECON,ioos:station:SCCF:18:1,2014-06-02T09:00:00Z,26.6955,-81.8138,1.46,5.13,1111122 
SCCF RECON,ioos:station:SCCF:18:1,2014-06-02T10:00:00Z,26.6955,-81.8138,1.43,5.16,1111122 
SCCF RECON,ioos:station:SCCF:18:1,2014-06-02T11:00:00Z,26.6955,-81.8138,1.439,5.04,1111122 
SCCF RECON,ioos:station:SCCF:18:1,2014-06-02T12:00:00Z,26.6955,-81.8138,1.45,5.08,1111122 
SCCF RECON,ioos:station:SCCF:18:1,2014-06-02T13:00:00Z,26.6955,-81.8138,1.45,4.92,1111122 
SCCF RECON,ioos:station:SCCF:18:1,2014-06-02T14:00:00Z,26.6955,-81.8138,1.44,4.66,1111122 
SCCF RECON,ioos:station:SCCF:18:1,2014-06-02T15:00:00Z,26.6955,-81.8138,1.47,4.76,1111122 
SCCF RECON,ioos:station:SCCF:18:1,2014-06-02T16:00:00Z,26.6955,-81.8138,1.52,4.76,1111122 
SCCF RECON,ioos:station:SCCF:18:1,2014-06-02T17:00:00Z,26.6955,-81.8138,1.51,4.84,1111122 
SCCF RECON,ioos:station:SCCF:18:1,2014-06-02T18:00:00Z,26.6955,-81.8138,1.48,4.79,1111122 
SCCF RECON,ioos:station:SCCF:18:1,2014-06-02T19:00:00Z,26.6955,-81.8138,1.45,4.7,1111122 
SCCF RECON,ioos:station:SCCF:18:1,2014-06-02T20:00:00Z,26.6955,-81.8138,1.434,4.93,1111122 
SCCF RECON,ioos:station:SCCF:18:1,2014-06-02T21:00:00Z,26.6955,-81.8138,1.46,4.72,1111122 
SCCF RECON,ioos:station:SCCF:18:1,2014-06-02T22:00:00Z,26.6955,-81.8138,1.46,4.77,1111122 
SCCF RECON,ioos:station:SCCF:18:1,2014-06-02T23:00:00Z,26.6955,-81.8138,1.47,4.85,1111122 
SCCF RECON,ioos:station:SCCF:18:1,2014-06-03T00:00:00Z,26.6955,-81.8138,1.5,4.87,1111122 
SCCF RECON,ioos:station:SCCF:18:1,2014-06-03T01:00:00Z,26.6955,-81.8138,1.55,4.97,1111122 
SCCF RECON,ioos:station:SCCF:18:1,2014-06-03T02:00:00Z,26.6955,-81.8138,1.57,4.96,1111122 
SCCF RECON,ioos:station:SCCF:18:1,2014-06-03T03:00:00Z,26.6955,-81.8138,1.61,4.96,1111122 
SCCF RECON,ioos:station:SCCF:18:1,2014-06-03T04:00:00Z,26.6955,-81.8138,1.57,4.9,1111122 
SCCF RECON,ioos:station:SCCF:18:1,2014-06-03T05:00:00Z,26.6955,-81.8138,1.53,5.28,1111122 
SCCF RECON,ioos:station:SCCF:18:1,2014-06-03T06:00:00Z,26.6955,-81.8138,1.48,4.95,1111122 
SCCF RECON,ioos:station:SCCF:18:1,2014-06-03T07:00:00Z,26.6955,-81.8138,1.45,4.88,1111122 
SCCF RECON,ioos:station:SCCF:18:1,2014-06-03T08:00:00Z,26.6955,-81.8138,1.4,4.88,1111122 
SCCF RECON,ioos:station:SCCF:18:1,2014-06-03T09:00:00Z,26.6955,-81.8138,1.39,4.93,1111122 
SCCF RECON,ioos:station:SCCF:18:1,2014-06-03T10:00:00Z,26.6955,-81.8138,1.37,5.18,1111122 
SCCF RECON,ioos:station:SCCF:18:1,2014-06-03T11:00:00Z,26.6955,-81.8138,1.38,5.07,1111122 
SCCF RECON,ioos:station:SCCF:18:1,2014-06-03T12:00:00Z,26.6955,-81.8138,1.405,5.15,1111122 
SCCF RECON,ioos:station:SCCF:18:1,2014-06-03T13:00:00Z,26.6955,-81.8138,1.43,5.18,1111122 
SCCF RECON,ioos:station:SCCF:18:1,2014-06-03T14:00:00Z,26.6955,-81.8138,1.45,5.34,1111122 
SCCF RECON,ioos:station:SCCF:18:1,2014-06-03T15:00:00Z,26.6955,-81.8138,1.49,5.1,1111122 
SCCF RECON,ioos:station:SCCF:18:1,2014-06-03T16:00:00Z,26.6955,-81.8138,1.5,4.74,1111122 
SCCF RECON,ioos:station:SCCF:18:1,2014-06-03T17:00:00Z,26.6955,-81.8138,1.53,5.0,1111122 
SCCF RECON,ioos:station:SCCF:18:1,2014-06-03T18:00:00Z,26.6955,-81.8138,1.57,5.03,1111122 
SCCF RECON,ioos:station:SCCF:18:1,2014-06-03T19:00:00Z,26.6955,-81.8138,1.57,5.05,1111122 
SCCF RECON,ioos:station:SCCF:18:1,2014-06-03T20:00:00Z,26.6955,-81.8138,1.57,5.08,1111122 
SCCF RECON,ioos:station:SCCF:18:1,2014-06-03T21:00:00Z,26.6955,-81.8138,1.53,5.19,1111122 
SCCF RECON,ioos:station:SCCF:18:1,2014-06-03T22:00:00Z,26.6955,-81.8138,1.54,5.37,1111122 
SCCF RECON,ioos:station:SCCF:18:1,2014-06-03T23:00:00Z,26.6955,-81.8138,1.55,5.06,1111122 
SCCF RECON,ioos:station:SCCF:18:1,2014-06-04T00:00:00Z,26.6955,-81.8138,1.59,5.05,1111122 
SCCF RECON,ioos:station:SCCF:18:1,2014-06-04T01:00:00Z,26.6955,-81.8138,1.61,5.2,1111122 
SCCF RECON,ioos:station:SCCF:18:1,2014-06-04T02:00:00Z,26.6955,-81.8138,1.62,5.08,1111122 
SCCF RECON,ioos:station:SCCF:18:1,2014-06-04T03:00:00Z,26.6955,-81.8138,1.64,5.06,1111122 
SCCF RECON,ioos:station:SCCF:18:1,2014-06-04T04:00:00Z,26.6955,-81.8138,1.62,4.95,1111122 
SCCF RECON,ioos:station:SCCF:18:1,2014-06-04T05:00:00Z,26.6955,-81.8138,1.603,4.97,1111122 
SCCF RECON,ioos:station:SCCF:18:1,2014-06-04T06:00:00Z,26.6955,-81.8138,1.0,-9999.0,1111122 
SCCF RECON,ioos:station:SCCF:18:1,2014-06-04T07:00:00Z,26.6955,-81.8138,1.55,4.82,1111122 
SCCF RECON,ioos:station:SCCF:18:1,2014-06-04T08:00:00Z,26.6955,-81.8138,1.52,4.76,1111122 
SCCF RECON,ioos:station:SCCF:18:1,2014-06-04T09:00:00Z,26.6955,-81.8138,1.0,-9999.0,1111122 
SCCF RECON,ioos:station:SCCF:18:1,2014-06-04T10:00:00Z,26.6955,-81.8138,1.0,-9999.0,1111122 
SCCF RECON,ioos:station:SCCF:18:1,2014-06-04T11:00:00Z,26.6955,-81.8138,1.0,-9999.0,1111122 
SCCF RECON,ioos:station:SCCF:18:1,2014-06-04T12:00:00Z,26.6955,-81.8138,1.0,-9999.0,1111122 
SCCF RECON,ioos:station:SCCF:18:1,2014-06-04T13:00:00Z,26.6955,-81.8138,1.0,-9999.0,1111122 
SCCF RECON,ioos:station:SCCF:18:1,2014-06-04T14:00:00Z,26.6955,-81.8138,1.0,-9999.0,1111122 
SCCF RECON,ioos:station:SCCF:18:1,2014-06-04T15:00:00Z,26.6955,-81.8138,1.0,-9999.0,1111122 
SCCF RECON,ioos:station:SCCF:18:1,2014-06-04T16:00:00Z,26.6955,-81.8138,1.0,-9999.0,1111122 
SCCF RECON,ioos:station:SCCF:18:1,2014-06-04T17:00:00Z,26.6955,-81.8138,1.0,-9999.0,1111122 
SCCF RECON,ioos:station:SCCF:18:1,2014-06-04T18:00:00Z,26.6955,-81.8138,1.0,-9999.0,1111122 
SCCF RECON,ioos:station:SCCF:18:1,2014-06-04T19:00:00Z,26.6955,-81.8138,1.63,4.55,1111122 
SCCF RECON,ioos:station:SCCF:18:1,2014-06-04T20:00:00Z,26.6955,-81.8138,1.61,4.53,1111122 
SCCF RECON,ioos:station:SCCF:18:1,2014-06-04T21:00:00Z,26.6955,-81.8138,1.0,-9999.0,1111122 
SCCF RECON,ioos:station:SCCF:18:1,2014-06-04T22:00:00Z,26.6955,-81.8138,1.61,4.99,1111122 
SCCF RECON,ioos:station:SCCF:18:1,2014-06-04T23:00:00Z,26.6955,-81.8138,1.0,-9999.0,1111122 
SCCF RECON,ioos:station:SCCF:18:1,2014-06-05T00:00:00Z,26.6955,-81.8138,1.0,-9999.0,1111122 
SCCF RECON,ioos:station:SCCF:18:1,2014-06-05T01:00:00Z,26.6955,-81.8138,1.0,-9999.0,1111122 
SCCF RECON,ioos:station:SCCF:18:1,2014-06-05T02:00:00Z,26.6955,-81.8138,1.0,-9999.0,1111122 
SCCF RECON,ioos:station:SCCF:18:1,2014-06-05T03:00:00Z,26.6955,-81.8138,1.0,-9999.0,1111122 
SCCF RECON,ioos:station:SCCF:18:1,2014-06-05T04:00:00Z,26.6955,-81.8138,1.0,-9999.0,1111122 
SCCF RECON,ioos:station:SCCF:18:1,2014-06-05T05:00:00Z,26.6955,-81.8138,1.0,-9999.0,1111122 
SCCF RECON,ioos:station:SCCF:18:1,2014-06-05T06:00:00Z,26.6955,-81.8138,1.0,-9999.0,1111122 
SCCF RECON,ioos:station:SCCF:18:1,2014-06-05T07:00:00Z,26.6955,-81.8138,1.0,-9999.0,1111122 
SCCF RECON,ioos:station:SCCF:18:1,2014-06-05T08:00:00Z,26.6955,-81.8138,1.56,4.29,1111122 
SCCF RECON,ioos:station:SCCF:18:1,2014-06-05T09:00:00Z,26.6955,-81.8138,1.0,-9999.0,1111122 
SCCF RECON,ioos:station:SCCF:18:1,2014-06-05T10:00:00Z,26.6955,-81.8138,1.51,4.3,1111122 
SCCF RECON,ioos:station:SCCF:18:1,2014-06-05T11:00:00Z,26.6955,-81.8138,1.0,-9999.0,1111122 
SCCF RECON,ioos:station:SCCF:18:1,2014-06-05T12:00:00Z,26.6955,-81.8138,1.0,-9999.0,1111122 
SCCF RECON,ioos:station:SCCF:18:1,2014-06-05T13:00:00Z,26.6955,-81.8138,1.0,-9999.0,1111122 
SCCF RECON,ioos:station:SCCF:18:1,2014-06-05T14:00:00Z,26.6955,-81.8138,1.0,-9999.0,1111122 
SCCF RECON,ioos:station:SCCF:18:1,2014-06-05T15:00:00Z,26.6955,-81.8138,1.0,-9999.0,1111122 
SCCF RECON,ioos:station:SCCF:18:1,2014-06-05T16:00:00Z,26.6955,-81.8138,1.0,-9999.0,1111122 
SCCF RECON,ioos:station:SCCF:18:1,2014-06-05T17:00:00Z,26.6955,-81.8138,1.0,-9999.0,1111122 
SCCF RECON,ioos:station:SCCF:18:1,2014-06-05T18:00:00Z,26.6955,-81.8138,1.0,-9999.0,1111122 
SCCF RECON,ioos:station:SCCF:18:1,2014-06-05T19:00:00Z,26.6955,-81.8138,1.0,-9999.0,1111122 
SCCF RECON,ioos:station:SCCF:18:1,2014-06-05T20:00:00Z,26.6955,-81.8138,1.0,-9999.0,1111122 
SCCF RECON,ioos:station:SCCF:18:1,2014-06-05T21:00:00Z,26.6955,-81.8138,1.0,-9999.0,1111122 
SCCF RECON,ioos:station:SCCF:18:1,2014-06-05T22:00:00Z,26.6955,-81.8138,1.0,-9999.0,1111122 
SCCF RECON,ioos:station:SCCF:18:1,2014-06-05T23:00:00Z,26.6955,-81.8138,1.0,-9999.0,1111122 
SCCF RECON,ioos:station:SCCF:18:1,2014-06-06T00:00:00Z,26.6955,-81.8138,1.0,-9999.0,1111122 
SCCF RECON,ioos:station:SCCF:18:1,2014-06-06T01:00:00Z,26.6955,-81.8138,1.0,-9999.0,1111122 
SCCF RECON,ioos:station:SCCF:18:1,2014-06-06T02:00:00Z,26.6955,-81.8138,1.0,-9999.0,1111122 
SCCF RECON,ioos:station:SCCF:18:1,2014-06-06T03:00:00Z,26.6955,-81.8138,1.0,-9999.0,1111122 
SCCF RECON,ioos:station:SCCF:18:1,2014-06-06T04:00:00Z,26.6955,-81.8138,1.0,-9999.0,1111122 
SCCF RECON,ioos:station:SCCF:18:1,2014-06-06T05:00:00Z,26.6955,-81.8138,1.0,-9999.0,1111122 
SCCF RECON,ioos:station:SCCF:18:1,2014-06-06T06:00:00Z,26.6955,-81.8138,1.0,-9999.0,1111122 
SCCF RECON,ioos:station:SCCF:18:1,2014-06-06T07:00:00Z,26.6955,-81.8138,1.0,-9999.0,1111122 
SCCF RECON,ioos:station:SCCF:18:1,2014-06-06T08:00:00Z,26.6955,-81.8138,1.0,-9999.0,1111122 
SCCF RECON,ioos:station:SCCF:18:1,2014-06-06T09:00:00Z,26.6955,-81.8138,1.0,-9999.0,1111122 
SCCF RECON,ioos:station:SCCF:18:1,2014-06-06T10:00:00Z,26.6955,-81.8138,1.0,-9999.0,1111122 
SCCF RECON,ioos:station:SCCF:18:1,2014-06-06T11:00:00Z,26.6955,-81.8138,1.0,-9999.0,1111122 
SCCF RECON,ioos:station:SCCF:18:1,2014-06-06T12:00:00Z,26.6955,-81.8138,1.0,-9999.0,1111122 
SCCF RECON,ioos:station:SCCF:18:1,2014-06-06T13:00:00Z,26.6955,-81.8138,1.0,-9999.0,1111122 
SCCF RECON,ioos:station:SCCF:18:1,2014-06-06T14:00:00Z,26.6955,-81.8138,1.0,-9999.0,1111122 
SCCF RECON,ioos:station:SCCF:18:1,2014-06-06T15:00:00Z,26.6955,-81.8138,1.44,6.12,1111122 
SCCF RECON,ioos:station:SCCF:18:1,2014-06-06T16:00:00Z,26.6955,-81.8138,1.54,6.35,1111122 
SCCF RECON,ioos:station:SCCF:18:1,2014-06-06T17:00:00Z,26.6955,-81.8138,1.59,5.98,1111122 
SCCF RECON,ioos:station:SCCF:18:1,2014-06-06T18:00:00Z,26.6955,-81.8138,1.64,5.72,1111122 
SCCF RECON,ioos:station:SCCF:18:1,2014-06-06T19:00:00Z,26.6955,-81.8138,1.67,5.92,1111122 
SCCF RECON,ioos:station:SCCF:18:1,2014-06-06T20:00:00Z,26.6955,-81.8138,1.67,6.25,1111122 
SCCF RECON,ioos:station:SCCF:18:1,2014-06-06T21:00:00Z,26.6955,-81.8138,1.63,5.72,1111122 
SCCF RECON,ioos:station:SCCF:18:1,2014-06-06T22:00:00Z,26.6955,-81.8138,1.6,6.18,1111122 
SCCF RECON,ioos:station:SCCF:18:1,2014-06-06T23:00:00Z,26.6955,-81.8138,1.52,6.93,1111122 
SCCF RECON,ioos:station:SCCF:18:1,2014-06-07T00:00:00Z,26.6955,-81.8138,1.5,6.35,1111122 
SCCF RECON,ioos:station:SCCF:18:1,2014-06-07T01:00:00Z,26.6955,-81.8138,1.552,5.69,1111122 
SCCF RECON,ioos:station:SCCF:18:1,2014-06-07T02:00:00Z,26.6955,-81.8138,1.61,6.04,1111122 
SCCF RECON,ioos:station:SCCF:18:1,2014-06-07T03:00:00Z,26.6955,-81.8138,1.62,6.23,1111122 
SCCF RECON,ioos:station:SCCF:18:1,2014-06-07T04:00:00Z,26.6955,-81.8138,1.63,6.18,1111122 
SCCF RECON,ioos:station:SCCF:18:1,2014-06-07T05:00:00Z,26.6955,-81.8138,1.65,5.89,1111122 
SCCF RECON,ioos:station:SCCF:18:1,2014-06-07T06:00:00Z,26.6955,-81.8138,1.66,5.7,1111122 
SCCF RECON,ioos:station:SCCF:18:1,2014-06-07T07:00:00Z,26.6955,-81.8138,1.65,6.1,1111122 
SCCF RECON,ioos:station:SCCF:18:1,2014-06-07T08:00:00Z,26.6955,-81.8138,1.62,5.88,1111122 
SCCF RECON,ioos:station:SCCF:18:1,2014-06-07T09:00:00Z,26.6955,-81.8138,1.536,5.85,1111122 
SCCF RECON,ioos:station:SCCF:18:1,2014-06-07T10:00:00Z,26.6955,-81.8138,1.52,5.59,1111122 
SCCF RECON,ioos:station:SCCF:18:1,2014-06-07T11:00:00Z,26.6955,-81.8138,1.518,5.4,1111122 
SCCF RECON,ioos:station:SCCF:18:1,2014-06-07T12:00:00Z,26.6955,-81.8138,1.52,6.02,1111122 
SCCF RECON,ioos:station:SCCF:18:1,2014-06-07T13:00:00Z,26.6955,-81.8138,1.49,6.09,1111122 
SCCF RECON,ioos:station:SCCF:18:1,2014-06-07T14:00:00Z,26.6955,-81.8138,1.529,6.31,1111122 
SCCF RECON,ioos:station:SCCF:18:1,2014-06-07T15:00:00Z,26.6955,-81.8138,1.56,6.21,1111122 
SCCF RECON,ioos:station:SCCF:18:1,2014-06-07T16:00:00Z,26.6955,-81.8138,1.6,6.49,1111122 
SCCF RECON,ioos:station:SCCF:18:1,2014-06-07T17:00:00Z,26.6955,-81.8138,1.637,6.29,1111122 
SCCF RECON,ioos:station:SCCF:18:1,2014-06-07T18:00:00Z,26.6955,-81.8138,1.67,6.48,1111122 
SCCF RECON,ioos:station:SCCF:18:1,2014-06-07T19:00:00Z,26.6955,-81.8138,1.703,6.03,1111122 
SCCF RECON,ioos:station:SCCF:18:1,2014-06-07T20:00:00Z,26.6955,-81.8138,1.713,5.92,1111122 
SCCF RECON,ioos:station:SCCF:18:1,2014-06-07T21:00:00Z,26.6955,-81.8138,1.72,6.02,1111122 
SCCF RECON,ioos:station:SCCF:18:1,2014-06-07T22:00:00Z,26.6955,-81.8138,1.64,6.34,1111122 
SCCF RECON,ioos:station:SCCF:18:1,2014-06-07T23:00:00Z,26.6955,-81.8138,1.59,5.74,1111122 
SCCF RECON,ioos:station:SCCF:18:1,2014-06-08T00:00:00Z,26.6955,-81.8138,1.57,5.92,1111122 
SCCF RECON,ioos:station:SCCF:18:1,2014-06-08T01:00:00Z,26.6955,-81.8138,1.55,5.78,1111122 
SCCF RECON,ioos:station:SCCF:18:1,2014-06-08T02:00:00Z,26.6955,-81.8138,1.61,5.92,1111122 
SCCF RECON,ioos:station:SCCF:18:1,2014-06-08T03:00:00Z,26.6955,-81.8138,1.6,6.06,1111122 
SCCF RECON,ioos:station:SCCF:18:1,2014-06-08T04:00:00Z,26.6955,-81.8138,1.61,5.79,1111122 
SCCF RECON,ioos:station:SCCF:18:1,2014-06-08T05:00:00Z,26.6955,-81.8138,1.62,6.08,1111122 
SCCF RECON,ioos:station:SCCF:18:1,2014-06-08T06:00:00Z,26.6955,-81.8138,1.63,6.03,1111122 
SCCF RECON,ioos:station:SCCF:18:1,2014-06-08T07:00:00Z,26.6955,-81.8138,1.64,5.88,1111122 
SCCF RECON,ioos:station:SCCF:18:1,2014-06-08T08:00:00Z,26.6955,-81.8138,1.636,5.55,1111122 
SCCF RECON,ioos:station:SCCF:18:1,2014-06-08T09:00:00Z,26.6955,-81.8138,1.62,5.41,1111122 
SCCF RECON,ioos:station:SCCF:18:1,2014-06-08T10:00:00Z,26.6955,-81.8138,1.62,5.5,1111122 
SCCF RECON,ioos:station:SCCF:18:1,2014-06-08T11:00:00Z,26.6955,-81.8138,1.61,5.52,1111122 
SCCF RECON,ioos:station:SCCF:18:1,2014-06-08T12:00:00Z,26.6955,-81.8138,1.6,5.57,1111122 
SCCF RECON,ioos:station:SCCF:18:1,2014-06-08T13:00:00Z,26.6955,-81.8138,1.57,6.18,1111122 
SCCF RECON,ioos:station:SCCF:18:1,2014-06-08T14:00:00Z,26.6955,-81.8138,1.542,6.2,1111122 
SCCF RECON,ioos:station:SCCF:18:1,2014-06-08T15:00:00Z,26.6955,-81.8138,1.587,6.23,1111122 
SCCF RECON,ioos:station:SCCF:18:1,2014-06-08T16:00:00Z,26.6955,-81.8138,1.61,6.4,1111122 
SCCF RECON,ioos:station:SCCF:18:1,2014-06-08T17:00:00Z,26.6955,-81.8138,1.652,6.34,1111122 
SCCF RECON,ioos:station:SCCF:18:1,2014-06-08T18:00:00Z,26.6955,-81.8138,1.7,6.31,1111122 
SCCF RECON,ioos:station:SCCF:18:1,2014-06-08T19:00:00Z,26.6955,-81.8138,1.73,6.42,1111122 
SCCF RECON,ioos:station:SCCF:18:1,2014-06-08T20:00:00Z,26.6955,-81.8138,1.72,6.2,1111122 
SCCF RECON,ioos:station:SCCF:18:1,2014-06-08T21:00:00Z,26.6955,-81.8138,1.7,6.18,1111122 
SCCF RECON,ioos:station:SCCF:18:1,2014-06-08T22:00:00Z,26.6955,-81.8138,1.69,6.21,1111122 
SCCF RECON,ioos:station:SCCF:18:1,2014-06-08T23:00:00Z,26.6955,-81.8138,1.72,5.73,1111122 
SCCF RECON,ioos:station:SCCF:18:1,2014-06-09T00:00:00Z,26.6955,-81.8138,1.72,5.63,1111122 
SCCF RECON,ioos:station:SCCF:18:1,2014-06-09T01:00:00Z,26.6955,-81.8138,1.67,5.61,1111122 
SCCF RECON,ioos:station:SCCF:18:1,2014-06-09T02:00:00Z,26.6955,-81.8138,1.631,5.64,1111122 
SCCF RECON,ioos:station:SCCF:18:1,2014-06-09T03:00:00Z,26.6955,-81.8138,1.59,5.76,1111122 
SCCF RECON,ioos:station:SCCF:18:1,2014-06-09T04:00:00Z,26.6955,-81.8138,1.52,5.87,1111122 
SCCF RECON,ioos:station:SCCF:18:1,2014-06-09T05:00:00Z,26.6955,-81.8138,1.52,6.0,1111122 
SCCF RECON,ioos:station:SCCF:18:1,2014-06-09T06:00:00Z,26.6955,-81.8138,1.52,6.08,1111122 
SCCF RECON,ioos:station:SCCF:18:1,2014-06-09T07:00:00Z,26.6955,-81.8138,1.54,5.95,1111122 
SCCF RECON,ioos:station:SCCF:18:1,2014-06-09T08:00:00Z,26.6955,-81.8138,1.556,5.75,1111122 
SCCF RECON,ioos:station:SCCF:18:1,2014-06-09T09:00:00Z,26.6955,-81.8138,1.549,5.65,1111122 
SCCF RECON,ioos:station:SCCF:18:1,2014-06-09T10:00:00Z,26.6955,-81.8138,1.55,5.56,1111122 
SCCF RECON,ioos:station:SCCF:18:1,2014-06-09T11:00:00Z,26.6955,-81.8138,1.57,5.59,1111122 
SCCF RECON,ioos:station:SCCF:18:1,2014-06-09T12:00:00Z,26.6955,-81.8138,1.56,5.62,1111122 
SCCF RECON,ioos:station:SCCF:18:1,2014-06-09T13:00:00Z,26.6955,-81.8138,1.522,6.05,1111122 
SCCF RECON,ioos:station:SCCF:18:1,2014-06-09T14:00:00Z,26.6955,-81.8138,1.51,6.09,1111122 
SCCF RECON,ioos:station:SCCF:18:1,2014-06-09T15:00:00Z,26.6955,-81.8138,1.54,6.2,1111122 
SCCF RECON,ioos:station:SCCF:18:1,2014-06-09T16:00:00Z,26.6955,-81.8138,1.58,6.38,1111122 
SCCF RECON,ioos:station:SCCF:18:1,2014-06-09T17:00:00Z,26.6955,-81.8138,1.63,6.49,1111122 
SCCF RECON,ioos:station:SCCF:18:1,2014-06-09T18:00:00Z,26.6955,-81.8138,1.67,6.7,1111122 
SCCF RECON,ioos:station:SCCF:18:1,2014-06-09T19:00:00Z,26.6955,-81.8138,1.72,6.67,1111122 
SCCF RECON,ioos:station:SCCF:18:1,2014-06-09T20:00:00Z,26.6955,-81.8138,1.74,6.22,1111122 
SCCF RECON,ioos:station:SCCF:18:1,2014-06-09T21:00:00Z,26.6955,-81.8138,1.79,5.63,1111122 
SCCF RECON,ioos:station:SCCF:18:1,2014-06-09T22:00:00Z,26.6955,-81.8138,1.77,5.58,1111122 
SCCF RECON,ioos:station:SCCF:18:1,2014-06-09T23:00:00Z,26.6955,-81.8138,1.73,5.75,1111122 
SCCF RECON,ioos:station:SCCF:18:1,2014-06-10T00:00:00Z,26.6955,-81.8138,1.69,5.69,1111122 
SCCF RECON,ioos:station:SCCF:18:1,2014-06-10T01:00:00Z,26.6955,-81.8138,1.641,5.71,1111122 
SCCF RECON,ioos:station:SCCF:18:1,2014-06-10T02:00:00Z,26.6955,-81.8138,1.6,5.83,1111122 
SCCF RECON,ioos:station:SCCF:18:1,2014-06-10T03:00:00Z,26.6955,-81.8138,1.57,6.06,1111122 
SCCF RECON,ioos:station:SCCF:18:1,2014-06-10T04:00:00Z,26.6955,-81.8138,1.55,6.06,1111122 
SCCF RECON,ioos:station:SCCF:18:1,2014-06-10T05:00:00Z,26.6955,-81.8138,1.523,6.01,1111122 
SCCF RECON,ioos:station:SCCF:18:1,2014-06-10T06:00:00Z,26.6955,-81.8138,1.55,6.01,1111122 
SCCF RECON,ioos:station:SCCF:18:1,2014-06-10T07:00:00Z,26.6955,-81.8138,1.55,6.29,1111122 
SCCF RECON,ioos:station:SCCF:18:1,2014-06-10T08:00:00Z,26.6955,-81.8138,1.56,6.19,1111122 
SCCF RECON,ioos:station:SCCF:18:1,2014-06-10T09:00:00Z,26.6955,-81.8138,1.6,6.04,1111122 
SCCF RECON,ioos:station:SCCF:18:1,2014-06-10T10:00:00Z,26.6955,-81.8138,1.61,5.8,1111122 
SCCF RECON,ioos:station:SCCF:18:1,2014-06-10T11:00:00Z,26.6955,-81.8138,1.624,5.71,1111122 
SCCF RECON,ioos:station:SCCF:18:1,2014-06-10T12:00:00Z,26.6955,-81.8138,1.63,5.68,1111122 
SCCF RECON,ioos:station:SCCF:18:1,2014-06-10T13:00:00Z,26.6955,-81.8138,1.65,5.65,1111122 
SCCF RECON,ioos:station:SCCF:18:1,2014-06-10T14:00:00Z,26.6955,-81.8138,1.67,6.09,1111122 
SCCF RECON,ioos:station:SCCF:18:1,2014-06-10T15:00:00Z,26.6955,-81.8138,1.65,5.85,1111122 
SCCF RECON,ioos:station:SCCF:18:1,2014-06-10T16:00:00Z,26.6955,-81.8138,1.7,6.05,1111122 
SCCF RECON,ioos:station:SCCF:18:1,2014-06-10T17:00:00Z,26.6955,-81.8138,1.721,6.11,1111122 
SCCF RECON,ioos:station:SCCF:18:1,2014-06-10T18:00:00Z,26.6955,-81.8138,1.74,6.46,1111122 
SCCF RECON,ioos:station:SCCF:18:1,2014-06-10T19:00:00Z,26.6955,-81.8138,1.77,6.55,1111122 
SCCF RECON,ioos:station:SCCF:18:1,2014-06-10T20:00:00Z,26.6955,-81.8138,1.81,5.92,1111122 
SCCF RECON,ioos:station:SCCF:18:1,2014-06-10T21:00:00Z,26.6955,-81.8138,1.84,5.78,1111122 
SCCF RECON,ioos:station:SCCF:18:1,2014-06-10T22:00:00Z,26.6955,-81.8138,1.845,5.72,1111122 
SCCF RECON,ioos:station:SCCF:18:1,2014-06-10T23:00:00Z,26.6955,-81.8138,1.82,5.79,1111122 
SCCF RECON,ioos:station:SCCF:18:1,2014-06-11T00:00:00Z,26.6955,-81.8138,1.8,5.67,1111122 
SCCF RECON,ioos:station:SCCF:18:1,2014-06-11T01:00:00Z,26.6955,-81.8138,1.77,5.66,1111122 
SCCF RECON,ioos:station:SCCF:18:1,2014-06-11T02:00:00Z,26.6955,-81.8138,1.71,5.61,1111122 
SCCF RECON,ioos:station:SCCF:18:1,2014-06-11T03:00:00Z,26.6955,-81.8138,1.66,5.66,1111122 
SCCF RECON,ioos:station:SCCF:18:1,2014-06-11T04:00:00Z,26.6955,-81.8138,1.637,5.69,1111122 
SCCF RECON,ioos:station:SCCF:18:1,2014-06-11T05:00:00Z,26.6955,-81.8138,1.58,6.12,1111122 
SCCF RECON,ioos:station:SCCF:18:1,2014-06-11T06:00:00Z,26.6955,-81.8138,1.55,6.0,1111122 
SCCF RECON,ioos:station:SCCF:18:1,2014-06-11T07:00:00Z,26.6955,-81.8138,1.56,5.9,1111122 
SCCF RECON,ioos:station:SCCF:18:1,2014-06-11T08:00:00Z,26.6955,-81.8138,1.57,5.93,1111122 
SCCF RECON,ioos:station:SCCF:18:1,2014-06-11T09:00:00Z,26.6955,-81.8138,1.58,6.05,1111122 
SCCF RECON,ioos:station:SCCF:18:1,2014-06-11T10:00:00Z,26.6955,-81.8138,1.62,5.91,1111122 
SCCF RECON,ioos:station:SCCF:18:1,2014-06-11T11:00:00Z,26.6955,-81.8138,1.64,5.74,1111122 
SCCF RECON,ioos:station:SCCF:18:1,2014-06-11T12:00:00Z,26.6955,-81.8138,1.62,5.58,1111122 
SCCF RECON,ioos:station:SCCF:18:1,2014-06-11T13:00:00Z,26.6955,-81.8138,1.641,5.53,1111122 
SCCF RECON,ioos:station:SCCF:18:1,2014-06-11T14:00:00Z,26.6955,-81.8138,1.66,5.91,1111122 
SCCF RECON,ioos:station:SCCF:18:1,2014-06-11T15:00:00Z,26.6955,-81.8138,1.63,6.31,1111122 
SCCF RECON,ioos:station:SCCF:18:1,2014-06-11T16:00:00Z,26.6955,-81.8138,1.63,6.52,1111122 
SCCF RECON,ioos:station:SCCF:18:1,2014-06-11T17:00:00Z,26.6955,-81.8138,1.65,6.55,1111122 
SCCF RECON,ioos:station:SCCF:18:1,2014-06-11T18:00:00Z,26.6955,-81.8138,1.7,6.81,1111122 
SCCF RECON,ioos:station:SCCF:18:1,2014-06-11T19:00:00Z,26.6955,-81.8138,1.76,7.2,1111122 
SCCF RECON,ioos:station:SCCF:18:1,2014-06-11T20:00:00Z,26.6955,-81.8138,1.81,7.61,1111122 